Year,Month,Day,Hour,Minute,Value (Times are PST for temperature in C)
2021,08,03,00,00,21.50
2021,08,03,00,01,21.50
2021,08,03,00,02,21.40
2021,08,03,00,03,21.30
2021,08,03,00,04,21.20
2021,08,03,00,05,21.10
2021,08,03,00,06,21.10
2021,08,03,00,07,21.00
2021,08,03,00,08,20.90
2021,08,03,00,09,20.80
2021,08,03,00,10,20.80
2021,08,03,00,11,20.70
2021,08,03,00,12,20.60
2021,08,03,00,13,20.60
2021,08,03,00,14,20.50
2021,08,03,00,15,20.40
2021,08,03,00,16,20.40
2021,08,03,00,17,20.30
2021,08,03,00,18,20.30
2021,08,03,00,19,20.20
2021,08,03,00,20,20.20
2021,08,03,00,21,20.10
2021,08,03,00,22,20.00
2021,08,03,00,23,20.00
2021,08,03,00,24,19.90
2021,08,03,00,25,19.90
2021,08,03,00,26,19.80
2021,08,03,00,27,19.80
2021,08,03,00,28,19.70
2021,08,03,00,29,19.70
2021,08,03,00,30,19.70
2021,08,03,00,31,19.60
2021,08,03,00,32,19.60
2021,08,03,00,33,19.50
2021,08,03,00,34,19.50
2021,08,03,00,35,19.40
2021,08,03,00,36,19.40
2021,08,03,00,37,19.30
2021,08,03,00,38,19.30
2021,08,03,00,39,19.30
2021,08,03,00,40,19.20
2021,08,03,00,41,19.20
2021,08,03,00,42,19.20
2021,08,03,00,43,19.10
2021,08,03,00,44,19.10
2021,08,03,00,45,19.10
2021,08,03,00,46,19.00
2021,08,03,00,47,19.00
2021,08,03,00,48,19.00
2021,08,03,00,49,18.90
2021,08,03,00,50,18.90
2021,08,03,00,51,18.90
2021,08,03,00,52,18.80
2021,08,03,00,53,18.80
2021,08,03,00,54,18.80
2021,08,03,00,55,18.70
2021,08,03,00,56,18.70
2021,08,03,00,57,18.70
2021,08,03,00,58,18.60
2021,08,03,00,59,18.60
2021,08,03,01,00,18.60
2021,08,03,01,01,18.50
2021,08,03,01,02,18.50
2021,08,03,01,03,18.50
2021,08,03,01,04,18.40
2021,08,03,01,05,18.40
2021,08,03,01,06,18.40
2021,08,03,01,07,18.30
2021,08,03,01,08,18.30
2021,08,03,01,09,18.30
2021,08,03,01,10,18.30
2021,08,03,01,11,18.20
2021,08,03,01,12,18.20
2021,08,03,01,13,18.20
2021,08,03,01,14,18.20
2021,08,03,01,15,18.10
2021,08,03,01,16,18.10
2021,08,03,01,17,18.10
2021,08,03,01,18,18.10
2021,08,03,01,19,18.10
2021,08,03,01,20,18.00
2021,08,03,01,21,18.00
2021,08,03,01,22,18.00
2021,08,03,01,23,18.00
2021,08,03,01,24,17.90
2021,08,03,01,25,17.90
2021,08,03,01,26,17.90
2021,08,03,01,27,17.90
2021,08,03,01,28,17.80
2021,08,03,01,29,17.80
2021,08,03,01,30,17.80
2021,08,03,01,31,17.80
2021,08,03,01,32,17.70
2021,08,03,01,33,17.70
2021,08,03,01,34,17.70
2021,08,03,01,35,17.70
2021,08,03,01,36,17.70
2021,08,03,01,37,17.60
2021,08,03,01,38,17.60
2021,08,03,01,39,17.60
2021,08,03,01,40,17.50
2021,08,03,01,41,17.50
2021,08,03,01,42,17.50
2021,08,03,01,43,17.40
2021,08,03,01,44,17.40
2021,08,03,01,45,17.40
2021,08,03,01,46,17.30
2021,08,03,01,47,17.30
2021,08,03,01,48,17.30
2021,08,03,01,49,17.30
2021,08,03,01,50,17.30
2021,08,03,01,51,17.30
2021,08,03,01,52,17.30
2021,08,03,01,53,17.20
2021,08,03,01,54,17.20
2021,08,03,01,55,17.20
2021,08,03,01,56,17.20
2021,08,03,01,57,17.20
2021,08,03,01,58,17.10
2021,08,03,01,59,17.10
2021,08,03,02,00,17.10
2021,08,03,02,01,17.10
2021,08,03,02,02,17.10
2021,08,03,02,03,17.10
2021,08,03,02,04,17.10
2021,08,03,02,05,17.00
2021,08,03,02,06,17.00
2021,08,03,02,07,17.00
2021,08,03,02,08,17.00
2021,08,03,02,09,17.00
2021,08,03,02,10,17.00
2021,08,03,02,11,16.90
2021,08,03,02,12,17.00
2021,08,03,02,13,17.00
2021,08,03,02,14,17.00
2021,08,03,02,15,16.90
2021,08,03,02,16,17.00
2021,08,03,02,17,17.00
2021,08,03,02,18,17.00
2021,08,03,02,19,17.00
2021,08,03,02,20,17.00
2021,08,03,02,21,17.00
2021,08,03,02,22,17.00
2021,08,03,02,23,16.90
2021,08,03,02,24,16.90
2021,08,03,02,25,16.90
2021,08,03,02,26,16.90
2021,08,03,02,27,16.90
2021,08,03,02,28,16.80
2021,08,03,02,29,16.80
2021,08,03,02,30,16.80
2021,08,03,02,31,16.80
2021,08,03,02,32,16.80
2021,08,03,02,33,16.70
2021,08,03,02,34,16.70
2021,08,03,02,35,16.70
2021,08,03,02,36,16.70
2021,08,03,02,37,16.60
2021,08,03,02,38,16.60
2021,08,03,02,39,16.60
2021,08,03,02,40,16.50
2021,08,03,02,41,16.50
2021,08,03,02,42,16.40
2021,08,03,02,43,16.40
2021,08,03,02,44,16.40
2021,08,03,02,45,16.40
2021,08,03,02,46,16.30
2021,08,03,02,47,16.30
2021,08,03,02,48,16.30
2021,08,03,02,49,16.30
2021,08,03,02,50,16.30
2021,08,03,02,51,16.30
2021,08,03,02,52,16.20
2021,08,03,02,53,16.20
2021,08,03,02,54,16.20
2021,08,03,02,55,16.20
2021,08,03,02,56,16.10
2021,08,03,02,57,16.10
2021,08,03,02,58,16.10
2021,08,03,02,59,16.10
2021,08,03,03,00,16.00
2021,08,03,03,01,16.00
2021,08,03,03,02,16.00
2021,08,03,03,03,16.00
2021,08,03,03,04,15.90
2021,08,03,03,05,15.90
2021,08,03,03,06,15.90
2021,08,03,03,07,15.90
2021,08,03,03,08,15.80
2021,08,03,03,09,15.80
2021,08,03,03,10,15.80
2021,08,03,03,11,15.80
2021,08,03,03,12,15.80
2021,08,03,03,13,15.70
2021,08,03,03,14,15.70
2021,08,03,03,15,15.70
2021,08,03,03,16,15.70
2021,08,03,03,17,15.70
2021,08,03,03,18,15.70
2021,08,03,03,19,15.70
2021,08,03,03,20,15.70
2021,08,03,03,21,15.70
2021,08,03,03,22,15.60
2021,08,03,03,23,15.60
2021,08,03,03,24,15.60
2021,08,03,03,25,15.60
2021,08,03,03,26,15.60
2021,08,03,03,27,15.60
2021,08,03,03,28,15.60
2021,08,03,03,29,15.50
2021,08,03,03,30,15.50
2021,08,03,03,31,15.50
2021,08,03,03,32,15.40
2021,08,03,03,33,15.40
2021,08,03,03,34,15.40
2021,08,03,03,35,15.40
2021,08,03,03,36,15.30
2021,08,03,03,37,15.30
2021,08,03,03,38,15.30
2021,08,03,03,39,15.30
2021,08,03,03,40,15.30
2021,08,03,03,41,15.20
2021,08,03,03,42,15.20
2021,08,03,03,43,15.20
2021,08,03,03,44,15.20
2021,08,03,03,45,15.20
2021,08,03,03,46,15.20
2021,08,03,03,47,15.20
2021,08,03,03,48,15.20
2021,08,03,03,49,15.20
2021,08,03,03,50,15.20
2021,08,03,03,51,15.10
2021,08,03,03,52,15.10
2021,08,03,03,53,15.10
2021,08,03,03,54,15.10
2021,08,03,03,55,15.10
2021,08,03,03,56,15.00
2021,08,03,03,57,15.00
2021,08,03,03,58,15.00
2021,08,03,03,59,15.00
2021,08,03,04,00,14.90
2021,08,03,04,01,14.90
2021,08,03,04,02,14.90
2021,08,03,04,03,14.90
2021,08,03,04,04,14.90
2021,08,03,04,05,14.90
2021,08,03,04,06,14.90
2021,08,03,04,07,14.90
2021,08,03,04,08,14.90
2021,08,03,04,09,14.80
2021,08,03,04,10,14.80
2021,08,03,04,11,14.80
2021,08,03,04,12,14.80
2021,08,03,04,13,14.80
2021,08,03,04,14,14.80
2021,08,03,04,15,14.80
2021,08,03,04,16,14.80
2021,08,03,04,17,14.80
2021,08,03,04,18,14.80
2021,08,03,04,19,14.80
2021,08,03,04,20,14.80
2021,08,03,04,21,14.80
2021,08,03,04,22,14.80
2021,08,03,04,23,14.80
2021,08,03,04,24,14.80
2021,08,03,04,25,14.70
2021,08,03,04,26,14.70
2021,08,03,04,27,14.70
2021,08,03,04,28,14.70
2021,08,03,04,29,14.70
2021,08,03,04,30,14.70
2021,08,03,04,31,14.70
2021,08,03,04,32,14.70
2021,08,03,04,33,14.60
2021,08,03,04,34,14.60
2021,08,03,04,35,14.60
2021,08,03,04,36,14.60
2021,08,03,04,37,14.60
2021,08,03,04,38,14.50
2021,08,03,04,39,14.50
2021,08,03,04,40,14.50
2021,08,03,04,41,14.50
2021,08,03,04,42,14.50
2021,08,03,04,43,14.50
2021,08,03,04,44,14.40
2021,08,03,04,45,14.40
2021,08,03,04,46,14.40
2021,08,03,04,47,14.40
2021,08,03,04,48,14.40
2021,08,03,04,49,14.40
2021,08,03,04,50,14.30
2021,08,03,04,51,14.30
2021,08,03,04,52,14.30
2021,08,03,04,53,14.30
2021,08,03,04,54,14.30
2021,08,03,04,55,14.30
2021,08,03,04,56,14.30
2021,08,03,04,57,14.20
2021,08,03,04,58,14.20
2021,08,03,04,59,14.20
2021,08,03,05,00,14.20
2021,08,03,05,01,14.20
2021,08,03,05,02,14.20
2021,08,03,05,03,14.20
2021,08,03,05,04,14.20
2021,08,03,05,05,14.10
2021,08,03,05,06,14.10
2021,08,03,05,07,14.10
2021,08,03,05,08,14.10
2021,08,03,05,09,14.10
2021,08,03,05,10,14.10
2021,08,03,05,11,14.10
2021,08,03,05,12,14.10
2021,08,03,05,13,14.00
2021,08,03,05,14,14.00
2021,08,03,05,15,14.00
2021,08,03,05,16,14.00
2021,08,03,05,17,13.90
2021,08,03,05,18,13.90
2021,08,03,05,19,13.90
2021,08,03,05,20,13.90
2021,08,03,05,21,13.90
2021,08,03,05,22,13.90
2021,08,03,05,23,13.90
2021,08,03,05,24,13.90
2021,08,03,05,25,13.90
2021,08,03,05,26,13.90
2021,08,03,05,27,13.90
2021,08,03,05,28,13.80
2021,08,03,05,29,13.80
2021,08,03,05,30,13.80
2021,08,03,05,31,13.80
2021,08,03,05,32,13.80
2021,08,03,05,33,13.80
2021,08,03,05,34,13.80
2021,08,03,05,35,13.80
2021,08,03,05,36,13.80
2021,08,03,05,37,13.80
2021,08,03,05,38,13.70
2021,08,03,05,39,13.70
2021,08,03,05,40,13.70
2021,08,03,05,41,13.70
2021,08,03,05,42,13.70
2021,08,03,05,43,13.70
2021,08,03,05,44,13.70
2021,08,03,05,45,13.60
2021,08,03,05,46,13.60
2021,08,03,05,47,13.60
2021,08,03,05,48,13.60
2021,08,03,05,49,13.60
2021,08,03,05,50,13.50
2021,08,03,05,51,13.50
2021,08,03,05,52,13.50
2021,08,03,05,53,13.50
2021,08,03,05,54,13.50
2021,08,03,05,55,13.50
2021,08,03,05,56,13.50
2021,08,03,05,57,13.50
2021,08,03,05,58,13.50
2021,08,03,05,59,13.40
2021,08,03,06,00,13.40
2021,08,03,06,01,13.40
2021,08,03,06,02,13.40
2021,08,03,06,03,13.40
2021,08,03,06,04,13.40
2021,08,03,06,05,13.40
2021,08,03,06,06,13.40
2021,08,03,06,07,13.30
2021,08,03,06,08,13.30
2021,08,03,06,09,13.30
2021,08,03,06,10,13.30
2021,08,03,06,11,13.30
2021,08,03,06,12,13.30
2021,08,03,06,13,13.30
2021,08,03,06,14,13.30
2021,08,03,06,15,13.40
2021,08,03,06,16,13.40
2021,08,03,06,17,13.40
2021,08,03,06,18,13.40
2021,08,03,06,19,13.40
2021,08,03,06,20,13.40
2021,08,03,06,21,13.40
2021,08,03,06,22,13.40
2021,08,03,06,23,13.40
2021,08,03,06,24,13.40
2021,08,03,06,25,13.40
2021,08,03,06,26,13.40
2021,08,03,06,27,13.40
2021,08,03,06,28,13.40
2021,08,03,06,29,13.40
2021,08,03,06,30,13.40
2021,08,03,06,31,13.40
2021,08,03,06,32,13.40
2021,08,03,06,33,13.40
2021,08,03,06,34,13.40
2021,08,03,06,35,13.40
2021,08,03,06,36,13.40
2021,08,03,06,37,13.40
2021,08,03,06,38,13.40
2021,08,03,06,39,13.40
2021,08,03,06,40,13.40
2021,08,03,06,41,13.40
2021,08,03,06,42,13.40
2021,08,03,06,43,13.40
2021,08,03,06,44,13.40
2021,08,03,06,45,13.40
2021,08,03,06,46,13.40
2021,08,03,06,47,13.40
2021,08,03,06,48,13.40
2021,08,03,06,49,13.40
2021,08,03,06,50,13.40
2021,08,03,06,51,13.40
2021,08,03,06,52,13.40
2021,08,03,06,53,13.40
2021,08,03,06,54,13.30
2021,08,03,06,55,13.30
2021,08,03,06,56,13.30
2021,08,03,06,57,13.30
2021,08,03,06,58,13.30
2021,08,03,06,59,13.30
2021,08,03,07,00,13.30
2021,08,03,07,01,13.30
2021,08,03,07,02,13.30
2021,08,03,07,03,13.30
2021,08,03,07,04,13.30
2021,08,03,07,05,13.30
2021,08,03,07,06,13.30
2021,08,03,07,07,13.30
2021,08,03,07,08,13.30
2021,08,03,07,09,13.30
2021,08,03,07,10,13.30
2021,08,03,07,11,13.30
2021,08,03,07,12,13.30
2021,08,03,07,13,13.30
2021,08,03,07,14,13.20
2021,08,03,07,15,13.20
2021,08,03,07,16,13.20
2021,08,03,07,17,13.20
2021,08,03,07,18,13.20
2021,08,03,07,19,13.20
2021,08,03,07,20,13.20
2021,08,03,07,21,13.20
2021,08,03,07,22,13.20
2021,08,03,07,23,13.20
2021,08,03,07,24,13.20
2021,08,03,07,25,13.20
2021,08,03,07,26,13.20
2021,08,03,07,27,13.20
2021,08,03,07,28,13.20
2021,08,03,07,29,13.20
2021,08,03,07,30,13.20
2021,08,03,07,31,13.20
2021,08,03,07,32,13.20
2021,08,03,07,33,13.30
2021,08,03,07,34,13.30
2021,08,03,07,35,13.30
2021,08,03,07,36,13.30
2021,08,03,07,37,13.30
2021,08,03,07,38,13.30
2021,08,03,07,39,13.30
2021,08,03,07,40,13.30
2021,08,03,07,41,13.30
2021,08,03,07,42,13.30
2021,08,03,07,43,13.30
2021,08,03,07,44,13.30
2021,08,03,07,45,13.30
2021,08,03,07,46,13.40
2021,08,03,07,47,13.40
2021,08,03,07,48,13.40
2021,08,03,07,49,13.40
2021,08,03,07,50,13.40
2021,08,03,07,51,13.50
2021,08,03,07,52,13.50
2021,08,03,07,53,13.50
2021,08,03,07,54,13.60
2021,08,03,07,55,13.60
2021,08,03,07,56,13.60
2021,08,03,07,57,13.60
2021,08,03,07,58,13.60
2021,08,03,07,59,13.60
2021,08,03,08,00,13.70
2021,08,03,08,01,13.70
2021,08,03,08,02,13.70
2021,08,03,08,03,13.70
2021,08,03,08,04,13.70
2021,08,03,08,05,13.70
2021,08,03,08,06,13.70
2021,08,03,08,07,13.80
2021,08,03,08,08,13.80
2021,08,03,08,09,13.80
2021,08,03,08,10,13.80
2021,08,03,08,11,13.90
2021,08,03,08,12,13.90
2021,08,03,08,13,13.90
2021,08,03,08,14,13.90
2021,08,03,08,15,13.90
2021,08,03,08,16,14.00
2021,08,03,08,17,14.00
2021,08,03,08,18,14.00
2021,08,03,08,19,14.00
2021,08,03,08,20,14.00
2021,08,03,08,21,14.10
2021,08,03,08,22,14.10
2021,08,03,08,23,14.10
2021,08,03,08,24,14.20
2021,08,03,08,25,14.20
2021,08,03,08,26,14.20
2021,08,03,08,27,14.20
2021,08,03,08,28,14.30
2021,08,03,08,29,14.30
2021,08,03,08,30,14.30
2021,08,03,08,31,14.30
2021,08,03,08,32,14.30
2021,08,03,08,33,14.30
2021,08,03,08,34,14.40
2021,08,03,08,35,14.40
2021,08,03,08,36,14.50
2021,08,03,08,37,14.60
2021,08,03,08,38,14.60
2021,08,03,08,39,14.60
2021,08,03,08,40,14.70
2021,08,03,08,41,14.70
2021,08,03,08,42,14.80
2021,08,03,08,43,14.80
2021,08,03,08,44,14.80
2021,08,03,08,45,14.90
2021,08,03,08,46,14.90
2021,08,03,08,47,14.90
2021,08,03,08,48,14.90
2021,08,03,08,49,15.00
2021,08,03,08,50,15.00
2021,08,03,08,51,15.10
2021,08,03,08,52,15.10
2021,08,03,08,53,15.10
2021,08,03,08,54,15.20
2021,08,03,08,55,15.20
2021,08,03,08,56,15.20
2021,08,03,08,57,15.20
2021,08,03,08,58,15.30
2021,08,03,08,59,15.30
2021,08,03,09,00,15.30
2021,08,03,09,01,15.30
2021,08,03,09,02,15.40
2021,08,03,09,03,15.40
2021,08,03,09,04,15.40
2021,08,03,09,05,15.50
2021,08,03,09,06,15.50
2021,08,03,09,07,15.60
2021,08,03,09,08,15.60
2021,08,03,09,09,15.60
2021,08,03,09,10,15.70
2021,08,03,09,11,15.70
2021,08,03,09,12,15.70
2021,08,03,09,13,15.80
2021,08,03,09,14,15.80
2021,08,03,09,15,15.90
2021,08,03,09,16,15.90
2021,08,03,09,17,15.90
2021,08,03,09,18,16.00
2021,08,03,09,19,16.00
2021,08,03,09,20,16.00
2021,08,03,09,21,16.10
2021,08,03,09,22,16.10
2021,08,03,09,23,16.10
2021,08,03,09,24,16.10
2021,08,03,09,25,16.10
2021,08,03,09,26,16.20
2021,08,03,09,27,16.20
2021,08,03,09,28,16.20
2021,08,03,09,29,16.30
2021,08,03,09,30,16.30
2021,08,03,09,31,16.40
2021,08,03,09,32,16.40
2021,08,03,09,33,16.50
2021,08,03,09,34,16.50
2021,08,03,09,35,16.60
2021,08,03,09,36,16.60
2021,08,03,09,37,16.60
2021,08,03,09,38,16.70
2021,08,03,09,39,16.70
2021,08,03,09,40,16.70
2021,08,03,09,41,16.80
2021,08,03,09,42,16.80
2021,08,03,09,43,16.90
2021,08,03,09,44,16.90
2021,08,03,09,45,17.00
2021,08,03,09,46,17.00
2021,08,03,09,47,17.10
2021,08,03,09,48,17.20
2021,08,03,09,49,17.20
2021,08,03,09,50,17.30
2021,08,03,09,51,17.30
2021,08,03,09,52,17.40
2021,08,03,09,53,17.40
2021,08,03,09,54,17.50
2021,08,03,09,55,17.50
2021,08,03,09,56,17.60
2021,08,03,09,57,17.60
2021,08,03,09,58,17.70
2021,08,03,09,59,17.70
2021,08,03,10,00,17.80
2021,08,03,10,01,17.80
2021,08,03,10,02,17.90
2021,08,03,10,03,18.00
2021,08,03,10,04,18.00
2021,08,03,10,05,18.10
2021,08,03,10,06,18.10
2021,08,03,10,07,18.20
2021,08,03,10,08,18.30
2021,08,03,10,09,18.30
2021,08,03,10,10,18.30
2021,08,03,10,11,18.40
2021,08,03,10,12,18.40
2021,08,03,10,13,18.40
2021,08,03,10,14,18.50
2021,08,03,10,15,18.50
2021,08,03,10,16,18.60
2021,08,03,10,17,18.60
2021,08,03,10,18,18.70
2021,08,03,10,19,18.70
2021,08,03,10,20,18.70
2021,08,03,10,21,18.70
2021,08,03,10,22,18.70
2021,08,03,10,23,18.80
2021,08,03,10,24,18.80
2021,08,03,10,25,18.80
2021,08,03,10,26,18.90
2021,08,03,10,27,18.90
2021,08,03,10,28,18.90
2021,08,03,10,29,19.00
2021,08,03,10,30,19.00
2021,08,03,10,31,19.00
2021,08,03,10,32,19.10
2021,08,03,10,33,19.10
2021,08,03,10,34,19.10
2021,08,03,10,35,19.20
2021,08,03,10,36,19.20
2021,08,03,10,37,19.20
2021,08,03,10,38,19.20
2021,08,03,10,39,19.30
2021,08,03,10,40,19.30
2021,08,03,10,41,19.30
2021,08,03,10,42,19.40
2021,08,03,10,43,19.40
2021,08,03,10,44,19.50
2021,08,03,10,45,19.50
2021,08,03,10,46,19.60
2021,08,03,10,47,19.60
2021,08,03,10,48,19.70
2021,08,03,10,49,19.70
2021,08,03,10,50,19.70
2021,08,03,10,51,19.80
2021,08,03,10,52,19.80
2021,08,03,10,53,19.90
2021,08,03,10,54,19.90
2021,08,03,10,55,19.90
2021,08,03,10,56,20.00
2021,08,03,10,57,20.00
2021,08,03,10,58,20.10
2021,08,03,10,59,20.10
2021,08,03,11,00,20.20
2021,08,03,11,01,20.20
2021,08,03,11,02,20.20
2021,08,03,11,03,20.30
2021,08,03,11,04,20.30
2021,08,03,11,05,20.40
2021,08,03,11,06,20.40
2021,08,03,11,07,20.50
2021,08,03,11,08,20.50
2021,08,03,11,09,20.60
2021,08,03,11,10,20.60
2021,08,03,11,11,20.60
2021,08,03,11,12,20.60
2021,08,03,11,13,20.70
2021,08,03,11,14,20.70
2021,08,03,11,15,20.70
2021,08,03,11,16,20.70
2021,08,03,11,17,20.70
2021,08,03,11,18,20.70
2021,08,03,11,19,20.70
2021,08,03,11,20,20.60
2021,08,03,11,21,20.60
2021,08,03,11,22,20.60
2021,08,03,11,23,20.60
2021,08,03,11,24,20.70
2021,08,03,11,25,20.70
2021,08,03,11,26,20.70
2021,08,03,11,27,20.80
2021,08,03,11,28,20.80
2021,08,03,11,29,20.80
2021,08,03,11,30,20.90
2021,08,03,11,31,21.00
2021,08,03,11,32,21.10
2021,08,03,11,33,21.20
2021,08,03,11,34,21.20
2021,08,03,11,35,21.30
2021,08,03,11,36,21.40
2021,08,03,11,37,21.40
2021,08,03,11,38,21.50
2021,08,03,11,39,21.50
2021,08,03,11,40,21.60
2021,08,03,11,41,21.60
2021,08,03,11,42,21.60
2021,08,03,11,43,21.60
2021,08,03,11,44,21.60
2021,08,03,11,45,21.60
2021,08,03,11,46,21.60
2021,08,03,11,47,21.60
2021,08,03,11,48,21.60
2021,08,03,11,49,21.60
2021,08,03,11,50,21.70
2021,08,03,11,51,21.70
2021,08,03,11,52,21.70
2021,08,03,11,53,21.80
2021,08,03,11,54,21.80
2021,08,03,11,55,21.80
2021,08,03,11,56,21.80
2021,08,03,11,57,21.90
2021,08,03,11,58,21.90
2021,08,03,11,59,21.90
2021,08,03,12,00,21.90
2021,08,03,12,01,21.90
2021,08,03,12,02,21.90
2021,08,03,12,03,21.90
2021,08,03,12,04,21.90
2021,08,03,12,05,22.00
2021,08,03,12,06,22.00
2021,08,03,12,07,22.00
2021,08,03,12,08,22.00
2021,08,03,12,09,22.00
2021,08,03,12,10,22.00
2021,08,03,12,11,22.00
2021,08,03,12,12,22.10
2021,08,03,12,13,22.10
2021,08,03,12,14,22.10
2021,08,03,12,15,22.10
2021,08,03,12,16,22.10
2021,08,03,12,17,22.10
2021,08,03,12,18,22.10
2021,08,03,12,19,22.10
2021,08,03,12,20,22.20
2021,08,03,12,21,22.20
2021,08,03,12,22,22.20
2021,08,03,12,23,22.20
2021,08,03,12,24,22.20
2021,08,03,12,25,22.30
2021,08,03,12,26,22.30
2021,08,03,12,27,22.40
2021,08,03,12,28,22.50
2021,08,03,12,29,22.60
2021,08,03,12,30,22.60
2021,08,03,12,31,22.70
2021,08,03,12,32,22.80
2021,08,03,12,33,22.80
2021,08,03,12,34,22.90
2021,08,03,12,35,22.90
2021,08,03,12,36,23.00
2021,08,03,12,37,23.00
2021,08,03,12,38,23.10
2021,08,03,12,39,23.10
2021,08,03,12,40,23.20
2021,08,03,12,41,23.20
2021,08,03,12,42,23.20
2021,08,03,12,43,23.20
2021,08,03,12,44,23.30
2021,08,03,12,45,23.30
2021,08,03,12,46,23.30
2021,08,03,12,47,23.40
2021,08,03,12,48,23.40
2021,08,03,12,49,23.50
2021,08,03,12,50,23.50
2021,08,03,12,51,23.60
2021,08,03,12,52,23.60
2021,08,03,12,53,23.60
2021,08,03,12,54,23.70
2021,08,03,12,55,23.70
2021,08,03,12,56,23.70
2021,08,03,12,57,23.80
2021,08,03,12,58,23.80
2021,08,03,12,59,23.80
2021,08,03,13,00,23.80
2021,08,03,13,01,23.90
2021,08,03,13,02,23.90
2021,08,03,13,03,23.90
2021,08,03,13,04,24.00
2021,08,03,13,05,24.00
2021,08,03,13,06,24.00
2021,08,03,13,07,24.00
2021,08,03,13,08,24.10
2021,08,03,13,09,24.10
2021,08,03,13,10,24.10
2021,08,03,13,11,24.10
2021,08,03,13,12,24.10
2021,08,03,13,13,24.10
2021,08,03,13,14,24.20
2021,08,03,13,15,24.20
2021,08,03,13,16,24.20
2021,08,03,13,17,24.30
2021,08,03,13,18,24.30
2021,08,03,13,19,24.30
2021,08,03,13,20,24.40
2021,08,03,13,21,24.50
2021,08,03,13,22,24.50
2021,08,03,13,23,24.60
2021,08,03,13,24,24.60
2021,08,03,13,25,24.70
2021,08,03,13,26,24.70
2021,08,03,13,27,24.70
2021,08,03,13,28,24.80
2021,08,03,13,29,24.80
2021,08,03,13,30,24.80
2021,08,03,13,31,24.80
2021,08,03,13,32,24.80
2021,08,03,13,33,24.80
2021,08,03,13,34,24.90
2021,08,03,13,35,24.90
2021,08,03,13,36,24.90
2021,08,03,13,37,25.00
2021,08,03,13,38,25.00
2021,08,03,13,39,25.00
2021,08,03,13,40,25.00
2021,08,03,13,41,25.00
2021,08,03,13,42,25.00
2021,08,03,13,43,25.10
2021,08,03,13,44,25.10
2021,08,03,13,45,25.20
2021,08,03,13,46,25.20
2021,08,03,13,47,25.20
2021,08,03,13,48,25.20
2021,08,03,13,49,25.20
2021,08,03,13,50,25.30
2021,08,03,13,51,25.20
2021,08,03,13,52,25.20
2021,08,03,13,53,25.20
2021,08,03,13,54,25.20
2021,08,03,13,55,25.20
2021,08,03,13,56,25.20
2021,08,03,13,57,25.20
2021,08,03,13,58,25.20
2021,08,03,13,59,25.20
2021,08,03,14,00,25.20
2021,08,03,14,01,25.20
2021,08,03,14,02,25.20
2021,08,03,14,03,25.20
2021,08,03,14,04,25.20
2021,08,03,14,05,25.20
2021,08,03,14,06,25.20
2021,08,03,14,07,25.10
2021,08,03,14,08,25.10
2021,08,03,14,09,25.10
2021,08,03,14,10,25.10
2021,08,03,14,11,25.10
2021,08,03,14,12,25.10
2021,08,03,14,13,25.10
2021,08,03,14,14,25.10
2021,08,03,14,15,25.10
2021,08,03,14,16,25.10
2021,08,03,14,17,25.10
2021,08,03,14,18,25.10
2021,08,03,14,19,25.10
2021,08,03,14,20,25.10
2021,08,03,14,21,25.10
2021,08,03,14,22,25.20
2021,08,03,14,23,25.20
2021,08,03,14,24,25.20
2021,08,03,14,25,25.20
2021,08,03,14,26,25.20
2021,08,03,14,27,25.20
2021,08,03,14,28,25.20
2021,08,03,14,29,25.30
2021,08,03,14,30,25.30
2021,08,03,14,31,25.30
2021,08,03,14,32,25.30
2021,08,03,14,33,25.40
2021,08,03,14,34,25.40
2021,08,03,14,35,25.50
2021,08,03,14,36,25.50
2021,08,03,14,37,25.60
2021,08,03,14,38,25.60
2021,08,03,14,39,25.60
2021,08,03,14,40,25.60
2021,08,03,14,41,25.60
2021,08,03,14,42,25.60
2021,08,03,14,43,25.60
2021,08,03,14,44,25.60
2021,08,03,14,45,25.60
2021,08,03,14,46,25.60
2021,08,03,14,47,25.60
2021,08,03,14,48,25.60
2021,08,03,14,49,25.60
2021,08,03,14,50,25.60
2021,08,03,14,51,25.70
2021,08,03,14,52,25.70
2021,08,03,14,53,25.70
2021,08,03,14,54,25.70
2021,08,03,14,55,25.70
2021,08,03,14,56,25.80
2021,08,03,14,57,25.80
2021,08,03,14,58,25.80
2021,08,03,14,59,25.80
2021,08,03,15,00,25.90
2021,08,03,15,01,25.90
2021,08,03,15,02,25.90
2021,08,03,15,03,26.00
2021,08,03,15,04,26.00
2021,08,03,15,05,26.10
2021,08,03,15,06,26.10
2021,08,03,15,07,26.10
2021,08,03,15,08,26.20
2021,08,03,15,09,26.20
2021,08,03,15,10,26.30
2021,08,03,15,11,26.30
2021,08,03,15,12,26.30
2021,08,03,15,13,26.30
2021,08,03,15,14,26.30
2021,08,03,15,15,26.20
2021,08,03,15,16,26.20
2021,08,03,15,17,26.20
2021,08,03,15,18,26.20
2021,08,03,15,19,26.30
2021,08,03,15,20,26.30
2021,08,03,15,21,26.30
2021,08,03,15,22,26.30
2021,08,03,15,23,26.40
2021,08,03,15,24,26.40
2021,08,03,15,25,26.50
2021,08,03,15,26,26.60
2021,08,03,15,27,26.60
2021,08,03,15,28,26.70
2021,08,03,15,29,26.70
2021,08,03,15,30,26.70
2021,08,03,15,31,26.80
2021,08,03,15,32,26.80
2021,08,03,15,33,26.80
2021,08,03,15,34,26.80
2021,08,03,15,35,26.90
2021,08,03,15,36,26.90
2021,08,03,15,37,26.90
2021,08,03,15,38,26.90
2021,08,03,15,39,27.00
2021,08,03,15,40,27.00
2021,08,03,15,41,27.10
2021,08,03,15,42,27.10
2021,08,03,15,43,27.20
2021,08,03,15,44,27.20
2021,08,03,15,45,27.20
2021,08,03,15,46,27.30
2021,08,03,15,47,27.30
2021,08,03,15,48,27.30
2021,08,03,15,49,27.30
2021,08,03,15,50,27.30
2021,08,03,15,51,27.30
2021,08,03,15,52,27.40
2021,08,03,15,53,27.40
2021,08,03,15,54,27.50
2021,08,03,15,55,27.50
2021,08,03,15,56,27.60
2021,08,03,15,57,27.60
2021,08,03,15,58,27.70
2021,08,03,15,59,27.70
2021,08,03,16,00,27.80
2021,08,03,16,01,27.70
2021,08,03,16,02,27.70
2021,08,03,16,03,27.70
2021,08,03,16,04,27.70
2021,08,03,16,05,27.70
2021,08,03,16,06,27.60
2021,08,03,16,07,27.60
2021,08,03,16,08,27.60
2021,08,03,16,09,27.50
2021,08,03,16,10,27.50
2021,08,03,16,11,27.50
2021,08,03,16,12,27.50
2021,08,03,16,13,27.40
2021,08,03,16,14,27.40
2021,08,03,16,15,27.40
2021,08,03,16,16,27.40
2021,08,03,16,17,27.40
2021,08,03,16,18,27.40
2021,08,03,16,19,27.50
2021,08,03,16,20,27.50
2021,08,03,16,21,27.50
2021,08,03,16,22,27.50
2021,08,03,16,23,27.60
2021,08,03,16,24,27.50
2021,08,03,16,25,27.50
2021,08,03,16,26,27.50
2021,08,03,16,27,27.50
2021,08,03,16,28,27.50
2021,08,03,16,29,27.40
2021,08,03,16,30,27.40
2021,08,03,16,31,27.40
2021,08,03,16,32,27.40
2021,08,03,16,33,27.40
2021,08,03,16,34,27.40
2021,08,03,16,35,27.40
2021,08,03,16,36,27.40
2021,08,03,16,37,27.40
2021,08,03,16,38,27.30
2021,08,03,16,39,27.30
2021,08,03,16,40,27.30
2021,08,03,16,41,27.30
2021,08,03,16,42,27.30
2021,08,03,16,43,27.30
2021,08,03,16,44,27.30
2021,08,03,16,45,27.20
2021,08,03,16,46,27.20
2021,08,03,16,47,27.20
2021,08,03,16,48,27.10
2021,08,03,16,49,27.10
2021,08,03,16,50,27.10
2021,08,03,16,51,27.10
2021,08,03,16,52,27.10
2021,08,03,16,53,27.10
2021,08,03,16,54,27.00
2021,08,03,16,55,27.00
2021,08,03,16,56,27.00
2021,08,03,16,57,27.00
2021,08,03,16,58,26.90
2021,08,03,16,59,26.80
2021,08,03,17,00,26.80
2021,08,03,17,01,26.70
2021,08,03,17,02,26.60
2021,08,03,17,03,26.50
2021,08,03,17,04,26.50
2021,08,03,17,05,26.40
2021,08,03,17,06,26.30
2021,08,03,17,07,26.30
2021,08,03,17,08,26.10
2021,08,03,17,09,26.00
2021,08,03,17,10,25.80
2021,08,03,17,11,25.60
2021,08,03,17,12,25.50
2021,08,03,17,13,25.30
2021,08,03,17,14,25.20
2021,08,03,17,15,25.00
2021,08,03,17,16,24.80
2021,08,03,17,17,24.60
2021,08,03,17,18,24.40
2021,08,03,17,19,24.20